Location: Chassagnes
(44.4047°N, 4.1657°E)
Time: 12:56:47
(UTC+00:00)

Helios 1A Rocket - Pass Details

Date: 27 October 2020
Orbit: 562 x 587 km, 98.3° (Epoch: 23 November)

Event Time Altitude Azimuth Distance (km) Brightness Sun altitude
Rises 17:06:33 0° 131° (SE) 2,798 6.1 -5.5°
Reaches altitude 10° 17:09:04 10° 115° (ESE) 1,900 5.1 -6.0°
Maximum altitude 17:12:12 22° 65° (ENE) 1,306 4.2 -6.5°
Drops below altitude 10° 17:15:21 10° 15° (NNE) 1,900 5.3 -7.1°
Sets 17:17:52 0° 0° (N) 2,799 6.3 -7.5°
